This is the latest recevied weather packets stored in our database for station/object KD5BIG-13. If no packets are shown the sender has not sent any weather packets the latest 10 day(s).
| Time | Temp. | Humidity | Pressure | Rain* | Wind** | Luminosity | Snow |
|---|---|---|---|---|---|---|---|
| 1778024468 | 25° C | 79% | 1013.1 hPa | 0 mm | - | 37 W/m² | - |
| 1778024166 | 25.56° C | 79% | 1013.2 hPa | 0 mm | - | 37 W/m² | - |
| 1778023863 | 25.56° C | 79% | 1013.4 hPa | 0 mm | - | 54 W/m² | - |
| 1778023561 | 25.56° C | 79% | 1013.3 hPa | 0 mm | - | 88 W/m² | - |
| 1778023258 | 25.56° C | 78% | 1013.3 hPa | 0 mm | - | 53 W/m² | - |
| 1778022954 | 25.56° C | 78% | 1013.3 hPa | 0 mm | - | 47 W/m² | - |
| 1778022653 | 25.56° C | 78% | 1013.3 hPa | 0 mm | - | 73 W/m² | - |
| 1778022351 | 25.56° C | 78% | 1013.3 hPa | 0 mm | - | 56 W/m² | - |
| 1778022047 | 25.56° C | 77% | 1013.1 hPa | 0 mm | - | 103 W/m² | - |
| 1778021744 | 25.56° C | 77% | 1013.3 hPa | 0 mm | - | 91 W/m² | - |
| 1778021440 | 25.56° C | 77% | 1012.9 hPa | 0 mm | - | 127 W/m² | - |
| 1778021137 | 25.56° C | 78% | 1013.1 hPa | 0 mm | - | 99 W/m² | - |
| 1778020834 | 25.56° C | 77% | 1013.4 hPa | 0 mm | - | 116 W/m² | - |
| 1778020531 | 25.56° C | 77% | 1013.3 hPa | 0 mm | - | 168 W/m² | - |
| 1778020227 | 25.56° C | 77% | 1013.2 hPa | 0 mm | - | 137 W/m² | - |
| 1778019924 | 25.56° C | 78% | 1013.3 hPa | 0 mm | - | 166 W/m² | - |
| 1778019620 | 25.56° C | 77% | 1013.3 hPa | 0 mm | - | 167 W/m² | - |
| 1778019317 | 25.56° C | 76% | 1013.4 hPa | 0 mm | - | 186 W/m² | - |
| 1778019014 | 25.56° C | 77% | 1013.3 hPa | 0 mm | - | 154 W/m² | - |
| 1778018711 | 25.56° C | 76% | 1013.5 hPa | 0 mm | - | 63 W/m² | - |
| 1778018409 | 25.56° C | 77% | 1013.7 hPa | 0 mm | - | 94 W/m² | - |
| 1778018107 | 25.56° C | 77% | 1013.6 hPa | 0 mm | - | 155 W/m² | - |
| 1778017804 | 25.56° C | 76% | 1013.6 hPa | 0 mm | - | 221 W/m² | - |
| 1778017502 | 25.56° C | 76% | 1013.8 hPa | 0 mm | - | 227 W/m² | - |
| 1778017198 | 25.56° C | 77% | 1013.8 hPa | 0 mm | - | 151 W/m² | - |
* Rain latest hour (hover to see other rain measurements)
** Current wind speed in m/s (hover to see current wind gust speed)